Location: Schommer Observatory
(40.5200°N, 74.4500°W)
Time: 19:09:28
(UTC-05:00)

OTV 5 (USA 277) - Pass Details

Date: 13 November 2017
Orbit: 404 x 417 km, 43.0° (Epoch: 07 September)

Event Time Altitude Azimuth Distance (km) Brightness Sun altitude
Exits shadow 04:29:16 27° 69° (ENE) 807 ? -25.3°
Drops below altitude 10° 04:30:56 10° 73° (ENE) 1,456 ? -25.0°
Sets 04:33:02 0° 74° (ENE) 2,317 ? -24.6°
